Location: Ravensburg
(47.7866°N, 9.6124°E)
Time: 11:30:58
(UTC+02:00)

STARS - Pass Details

Date: 25 March 2026
Orbit: 575 x 588 km, 98.2° (Epoch: 18 April)

Event Time Altitude Azimuth Distance (km) Brightness Sun altitude
Rises 02:34:27 0° 13° (NNE) 2,800 ? -33.3°
Reaches altitude 10° 02:36:36 10° 13° (NNE) 1,897 ? -33.0°
Enters shadow 02:37:53 20° 13° (NNE) 1,371 ? -32.9°
